Location: Township of Marena
(38.1747°N, 99.6798°W)
Time: 11:17:12
(UTC+00:00)

Cosmos 44 Rocket - Pass Details

Date: 26 October 2020
Orbit: 642 x 748 km, 65.1° (Epoch: 24 November)

Event Time Altitude Azimuth Distance (km) Brightness Sun altitude
Exits shadow 11:43:10 17° 313° (NW) 1,831 5.0 -15.5°
Maximum altitude 11:46:57 48° 245° (WSW) 969 3.7 -14.8°
Drops below altitude 10° 11:51:55 10° 172° (S) 2,255 6.1 -13.8°
Sets 11:54:21 0° 167° (SSE) 3,173 7.0 -13.3°
